Location: Bad Salzschlirf
(50.3750°N, 9.3000°E)
Time: 05:59:37
(UTC+02:00)

ISS - Pass Details

Date: 01 April 2020
Orbit: 417 x 423 km, 51.6° (Epoch: 29 March)

Event Time Altitude Azimuth Distance (km) Brightness Sun altitude
Rises 22:34:05 0° 281° (WNW) 2,361 1.0 -23.4°
Reaches altitude 10° 22:36:52 10° 256° (WSW) 1,494 -0.6 -23.7°
Enters shadow 22:37:46 13° 242° (WSW) 1,325 -1.0 -23.8°
